星链-3246 (STARLINK-3246 )

导读

STARLINK-3246是美国SpaceX公司星链星座的卫星,于2021年12月2日发射,属于全球规模最大的低轨卫星互联网星座组成部分。它运行在约550公里高度的近地轨道,依托星链星座的激光互联技术,可提供高速低延迟的宽带服务,旨在填补偏远地区网络覆盖空白,同时也服务于特殊场景通信需求,不过星链大规模部署也引发了太空安全与天文观测的争议。

基本信息
目录编号:
49732
目录名称:
STARLINK-3246
国际标识:
2021-115J
轨道中心:
EARTH
卫星名称:
星链-3246
卫星全名:
星链-3246 (STARLINK-3246 )
卫星状态:
在轨 (已飞行1744 天)
发射日期:
2021-12-02 UTC
国别 :
美国 (US)
星等 :
--
轨道信息
数据来源 国际轨道数据
星历时间: 2026-09-10T23:53:21+0800
12小时前
查看轨道信息
半长轴: 6848.881km
偏心率: 0.0001363
轨道倾角: 53.161°
近地点辐角 87.900°
升交点赤经 37.614°
平近点角 272.215°
近地点: 469.81km
远地点: 471.678km
周期: 94.013分钟
每日圈数: 15.316987
详细信息
固有亮度:
5
最大亮度:
2.5
卫星平台:
Starlink v1.5
覆盖范围:
全球
运营商:
太空探索技术公司
运营商所在国:
美国
制造商(研发单位):
太空探索技术公司
制造商所在国:
美国
使用方式:
暂无
卫星简介
星链(Starlink)计划是由太空探索技术公司(SpaceX)提出的一个巨型低轨卫星互联网星座项目,计划在2019年至2024年间在太空搭建由约1.2万颗卫星组成的“星链”网络,其中1584颗将部署在地球上空550千米处的近地轨道,并从2020年开始工作。该卫星仍在工作。
2D轨道图
3D轨道图
轨道高度分析图
轨道倾角分析图
轨道综合分析图
查看轨道综合分析图
交会数据列表
事件ID 空间交会对象 最接近时刻(TCA) 交会距离 交会风险概率(CRP) 交会风险指数(CRI) 操作
CDM_260905-011904-973206-914721
2026-09-05T
01:19:43+0000
2.993 km
极远距离
8.236982E-7 极低风险 0.33
与全量物体交会距离演化趋势
与全量物体交会风险概率演化趋势